Location: 5810 Zion Rd, Cleves, OH 45002, USA
(39.1922°N, 84.7113°W)
Time: 07:31:55
(UTC-05:00)

Vanguard 3 - Pass Details

Date: 18 December 2019
Orbit: 507 x 3263 km, 33.4° (Epoch: 24 January)

Event Time Altitude Azimuth Distance (km) Brightness Sun altitude
Rises 12:53:05 0° 271° (W) 4,874 11.2 27.3°
Reaches altitude 10° 12:56:42 10° 258° (WSW) 4,282 11.1 27.2°
Maximum altitude 13:05:55 25° 210° (SSW) 4,046 12.4 27.0°
Drops below altitude 10° 13:18:31 10° 165° (SSE) 5,933 12.8 26.6°
Sets 13:24:58 0° 154° (SSE) 7,158 12.7 26.4°
